This demonstration page uses our WeatherBlox Daily Observations layout. Learn more.

Left ArrowRight Arrow

Hourly Observations for March 26, 2021

Temp ( °F °C ) Dew Point ( °F °C ) Humidity (%) Winds ( mph kmh ) Pressure ( in mb ) Visibility ( mi km ) Precip ( " mm )
12:05 am 00:05 Mostly Cloudy with Nearby Thunderstorms 73 22.8 65 18.3 76 76 S 16 26 29.83 1010 10 16 0.00 0.00
12:25 am 00:25 Mostly Cloudy with Nearby Thunderstorms 72 22.2 66 18.9 82 82 SSW 14 22 29.87 1012 10 16 0.00 0.00
12:39 am 00:39 Cloudy with Thunderstorms 70 21.1 67 19.4 90 90 SSW 13 20 29.89 1012 4 6 0.09 2.29
12:53 am 00:53 Cloudy with Nearby Thunderstorms 70 21.1 67 19.4 90 90 SSW 10 17 29.88 1012 5 8 0.14 3.56
1:01 am 01:01 Cloudy with Thunderstorms 69 20.6 67 19.4 93 93 SSW 8 13 29.89 1012 3 5 0.05 1.27
1:14 am 01:14 Cloudy with Thunderstorms 69 20.6 66 18.9 90 90 SW 7 11 29.89 1012 8 13 0.06 1.52
1:21 am 01:21 Cloudy with Nearby Thunderstorms 68 20 66 18.9 93 93 SW 6 9 29.89 1012 10 16 0.06 1.52
1:44 am 01:44 Cloudy with Thunderstorms 68 20 66 18.9 93 93 SW 3 6 29.89 1012 10 16 0.06 1.52
1:53 am 01:53 Cloudy with Nearby Thunderstorms 68 20 66 18.9 93 93 W 7 11 29.89 1012 10 16 0.06 1.52
1:58 am 01:58 Cloudy with Nearby Thunderstorms 67 19.4 65 18.3 93 93 WNW 8 13 29.90 1013 10 16 0.00 0.00
2:01 am 02:01 Cloudy 68 20 66 18.9 93 93 Calm 29.89 1012 10 16 0.00 0.00
2:11 am 02:11 Cloudy with Light Rain 68 20 66 18.9 93 93 VRB 5 7 29.89 1012 10 16 0.00 0.00
2:23 am 02:23 Cloudy with Thunderstorms 69 20.6 66 18.9 90 90 SSW 3 6 29.88 1012 5 8 0.04 1.02
2:35 am 02:35 Cloudy with Strong Thunderstorms 68 20 65 18.3 90 90 WSW 12 19 29.91 1013 1 1 0.50 12.70
2:45 am 02:45 Cloudy with Thunderstorms 66 18.9 64 17.8 93 93 SW 8 13 29.90 1013 3 4 0.64 16.26
2:50 am 02:50 Cloudy with Thunderstorms 66 19 64 18 94 94 SW 5 7 29.90 1013 7 11 0.65 16.51
2:53 am 02:53 Cloudy with Thunderstorms 66 18.9 64 17.8 93 93 SSW 7 11 29.89 1012 7 11 0.65 16.51
3:00 am 03:00 Cloudy with Light Rain 67 19.4 65 18.3 93 93 SSW 6 9 29.90 1013 10 16 0.00 0.00
3:53 am 03:53 Cloudy 67 19.4 65 18.3 93 93 SW 6 9 29.90 1013 10 16 0.00 0.00
4:30 am 04:30 Cloudy 67 19.4 65 18.3 93 93 Calm 29.90 1013 10 16 0.00 0.00
4:53 am 04:53 Cloudy 67 19.4 65 18.3 93 93 Calm 29.89 1012 10 16 0.00 0.00
5:53 am 05:53 Cloudy with Light Rain 66 18.9 61 16.1 84 84 NNW 8 13 29.93 1013 10 16 0.01 0.25
6:18 am 06:18 Cloudy 65 18.3 61 16.1 87 87 Calm 29.95 1014 10 16 0.00 0.00
6:53 am 06:53 Cloudy 65 18.3 60 15.6 84 84 NNW 3 6 29.94 1014 10 16 0.00 0.00
7:53 am 07:53 Cloudy 64 17.8 61 16.1 90 90 Calm 29.96 1015 10 16 0.00 0.00
8:53 am 08:53 Cloudy 64 17.8 60 15.6 87 87 SW 3 6 30.01 1016 10 16 0.00 0.00
9:53 am 09:53 Cloudy 65 18.3 59 15 81 81 W 3 6 30.03 1017 10 16 0.00 0.00
10:53 am 10:53 Cloudy 67 19.4 59 15 76 76 Calm 30.05 1018 10 16 0.00 0.00
11:53 am 11:53 Cloudy 68 20 58 14.4 70 70 Calm 30.06 1018 10 16 0.00 0.00
12:53 pm 12:53 Mostly Cloudy 72 22.2 55 12.8 55 55 Calm 30.06 1018 10 16 0.00 0.00
1:53 pm 13:53 Cloudy 73 22.8 53 11.7 50 50 NW 6 9 30.06 1018 10 16 0.00 0.00
2:53 pm 14:53 Cloudy 72 22.2 52 11.1 50 50 Calm 30.06 1018 10 16 0.00 0.00
3:53 pm 15:53 Mostly Cloudy 74 23.3 53 11.7 48 48 VRB 3 6 30.05 1018 10 16 0.00 0.00
4:53 pm 16:53 Mostly Cloudy 75 23.9 53 11.7 46 46 S 7 11 30.04 1017 10 16 0.00 0.00
5:53 pm 17:53 Mostly Cloudy 74 23.3 52 11.1 46 46 SW 6 9 30.05 1018 10 16 0.00 0.00
6:53 pm 18:53 Partly Cloudy 74 23.3 52 11.1 46 46 SSW 3 6 30.06 1018 10 16 0.00 0.00
7:53 pm 19:53 Mostly Cloudy 72 22.2 53 11.7 52 52 SSW 3 6 30.07 1018 10 16 0.00 0.00
8:53 pm 20:53 Mostly Clear 69 20.6 55 12.8 61 61 SSW 3 6 30.08 1019 10 16 0.00 0.00
9:53 pm 21:53 Clear 67 19.4 56 13.3 68 68 S 3 6 30.10 1019 10 16 0.00 0.00
10:53 pm 22:53 Mostly Cloudy 64 17.8 58 14.4 81 81 SSW 3 6 30.12 1020 10 16 0.00 0.00
11:53 pm 23:53 Cloudy 63 17.2 58 14.4 84 84 Calm 30.12 1020 10 16 0.00 0.00

Powered by AerisWeather